Location: Gleizolles
(44.4833°N, 6.7667°E)
Time: 01:30:38
(UTC+00:00)

Vanguard 2 Rocket - Pass Details

Date: 20 June 2024
Orbit: 555 x 3302 km, 32.9° (Epoch: 24 July)

Event Time Altitude Azimuth Distance (km) Brightness Sun altitude
Rises 23:13:28 0° 187° (S) 6,523 - -21.9°
Reaches altitude 10° 23:19:44 10° 171° (S) 5,878 - -22.0°
Exits shadow 23:27:22 18° 147° (SSE) 5,487 10.3 -22.1°
Maximum altitude 23:30:54 19° 135° (SE) 5,476 10.4 -22.1°
Drops below altitude 10° 23:42:25 10° 99° (E) 6,160 11.0 -22.1°
Sets 23:49:05 0° 84° (E) 6,943 11.5 -22.0°
